Regional Weather Roundup
Issued by NWS

Home | Current Version | Previous Version | Graphics & Text | Print | Product List | Glossary Off
Versions: 1 2 3 4 5 6 7 8 9 10 11 12 13 14 15 16 17 18 19 20 21 22 23 24 25 26 27 28 29 30 31 32 33 34 35 36 37 38 39 40 41 42 43 44 45 46 47 48 49 50

000
ASUS43 KMKX 201500
RWRWI

WISCONSIN REGIONAL WEATHER ROUNDUP
NATIONAL WEATHER SERVICE MILWAUKEE/SULLIVAN WI
1000 AM CDT WED AUG 20 2014

NOTE: "FAIR" INDICATES FEW OR NO CLOUDS BELOW 12,000 FEET WITH NO
SIGNIFICANT WEATHER AND/OR OBSTRUCTIONS TO VISIBILITY.

WIZ001-002-006>008-014>016-023>028-201600-
NORTHWEST WISCONSIN

CITY           SKY/WX    TMP DP  RH WIND       PRES   REMARKS
SUPERIOR ARPT  CLOUDY    64  61  90 CALM      29.88S
ASHLAND        CLOUDY    64  59  83 CALM      29.90S
HAYWARD        CLOUDY    65  60  84 CALM      29.91R
SIREN          CLOUDY    63  61  94 S6        29.91R
RICE LAKE      CLOUDY    65  60  83 S3        29.92R
LADYSMITH      CLOUDY    64  59  84 CALM      29.91R
EAU CLAIRE     NOT AVBL
MENOMONIE      MOSUNNY   65  60  84 CALM      29.90F
NEW RICHMOND   CLOUDY    63  63  98 E3        29.90F
OSCEOLA        CLOUDY    66  65  96 NE5       29.93S
$$

WIZ003>005-009-010-017-018-201600-
NORTH CENTRAL WISCONSIN

CITY           SKY/WX    TMP DP  RH WIND       PRES   REMARKS
WOODRUFF       CLOUDY    62  59  90 NW6       29.91R
RHINELANDER    CLOUDY    62  57  83 NE6       29.90S
EAGLE RIVER    CLOUDY    61  58  90 N5        29.90R
LAND O LAKES   CLOUDY    61  58  90 CALM      29.91R
PHILLIPS       CLOUDY    62  58  88 NE6       29.89R
TOMAHAWK       CLOUDY    62  58  87 N7        29.90R
MEDFORD        CLOUDY    61  59  93 NW3       29.90R
MERRILL        CLOUDY    63  60  90 N5        29.88R
$$

WIZ029-030-035-036-043>047-201600-
CENTRAL WISCONSIN

CITY           SKY/WX    TMP DP  RH WIND       PRES   REMARKS
WAUSAU         CLOUDY    64  59  83 VRB3      29.87R
MOSINEE        CLOUDY    63  61  94 CALM      29.90R
MARSHFIELD     CLOUDY    61  59  93 W5        29.90R FOG
STEVENS POINT  CLOUDY    60  58  93 CALM      29.89S
WAUPACA        CLOUDY    66  62  85 CALM      29.89R
WAUTOMA        PTSUNNY   72  64  78 W6        29.88R
WISC RAPIDS    CLOUDY    65  61  87 NW7       29.90R
CAMP DOUGLAS   PTSUNNY   66  66 100 VRB1      29.88S
$$

WIZ011>013-019>022-031-037>040-048>050-201600-
NORTHEAST WISCONSIN

CITY           SKY/WX    TMP DP  RH WIND       PRES   REMARKS
ANTIGO         CLOUDY    62  59  90 N9        29.88R
STURGEON BAY   CLOUDY    64  59  82 N8        29.86R
GREEN BAY      CLOUDY    66  61  84 NW7       29.86R
MANITOWOC      NOT AVBL
APPLETON       PTSUNNY   66  61  82 W6        29.88R
CLINTONVILLE   CLOUDY    64  59  82 N6        29.87R
OSHKOSH        CLOUDY    69  63  81 VRB6      29.87R
$$

WIZ032>034-041-042-053>061-201600-
SOUTHWEST WISCONSIN

CITY           SKY/WX    TMP DP  RH WIND       PRES   REMARKS
LA CROSSE      CLOUDY    68  65  90 CALM      29.88R FOG
SPARTA         CLOUDY    64  64  98 CALM      29.88S
VIROQUA        FAIR      73  64  71 CALM      29.89R
BOSCOBEL       MOSUNNY   75  65  70 VRB5      29.88S
PRAIRIE DU CHI PTSUNNY   71  66  82 CALM      29.87F
PLATTEVILLE    FAIR      73  68  84 CALM      29.90S
$$

WIZ056-057-062-063-064-067-068-201600-
SOUTH CENTRAL WISCONSIN

CITY           SKY/WX    TMP DP  RH WIND       PRES   REMARKS
BARABOO/DELLS  SUNNY     72  63  73 CALM      29.88R
LONE ROCK      NOT AVBL
WATERTOWN      SUNNY     73  66  80 W5        29.87R
MADISON        MOSUNNY   76  64  66 VRB5      29.88R
MIDDLETON      FAIR      77  64  63 W5        29.88S
MONROE         SUNNY     73  64  73 SW6       29.89S
JANESVILLE     NOT AVBL
$$

WIZ051-052-058>065-066-070>072-201600-
SOUTHEAST WISCONSIN

CITY           SKY/WX    TMP DP  RH WIND       PRES   REMARKS
MILWAUKEE      MOSUNNY   76  63  64 W9        29.86S
WAUKESHA       MOSUNNY   72  64  78 W6        29.89R
MILWAUKEE/TIMM SUNNY     73  63  68 W7        29.86S
RACINE         SUNNY     76  65  68 W7        29.88S
BURLINGTON     SUNNY     74  65  74 W6        29.87S
KENOSHA        SUNNY     77  67  71 W6        29.88R
FOND DU LAC    MOSUNNY   72  64  76 VRB5      29.87R
SHEBOYGAN      PTSUNNY   72  63  73 NW7       29.87R
WEST BEND      PTSUNNY   70  61  73 W6        29.87R
JUNEAU         SUNNY     71  40  32 NW5       29.88S
$$

LSZ147-162-201600-
LAKE SUPERIOR

STATION/POSITION TIME  TEMP    WIND        PRES    WAVE
                       AIR SEA DIR/SP/G            HT/PER
                 (UTC) (F)     (DEG/KT/KT) (MB)    (FT/S)
W MID LAKE BUOY  1350   58 57  260/  4/  6 1011.1R   1
DEVILS ISLAND    1400   60     240/  9/ 10 1012.0R
PORT WING        1400   63      CALM  /  2 1012.2
SAXON HARBOR     1340   61      CALM  /  3 1012.2R
$$

LMZ867-665-643>646-201600-
LAKE MICHIGAN

STATION/POSITION TIME  TEMP    WIND        PRES    WAVE
                       AIR SEA DIR/SP/G            HT/PER
                 (UTC) (F)     (DEG/KT/KT) (MB)    (FT/S)
N MID LAKE BUOY  1350   61 62  330/ 12/ 12 1009.0R   1/ 3
NORTHPORT PIER   1400   62     350/  8/  9 1009.8S
KEWAUNEE LAKESHO 1400   65     260/  2/  4 1009.4R
SHEBOYGAN LAKESH 1400   66 66   30/  4/  4 1010.8R
ATWATER BUOY     1400   69     120/  2     1012.4R
MILWAUKEE LAKESH 1400   70     120/  3/  4   N/A
S MID LAKE BUOY  1350   67 66  260/  6/  8 1011.1R   0
KENOSHA   LAKESH 1400   73     260/  5/  7 1011.2R
$$

TC  - TEMPERATURE IN CELSIUS
VSB - VISIBILITY IN STATUTE MILES
WCI - WIND CHILL INDEX
HX  - HEAT INDEX




USA.gov is the U.S. government's official web portal to all federal, state and local government web resources and services.